Torna al catalogo

STARLINK-37334

AttivoComunicazioniVLEO
NORAD 68700·PAYLOAD·🇺🇸 United States

Lanciato Apr 14, 2026 da Cape Canaveral Space Force Station

Loading…

Prossimi Passaggi (prossime 24 ore)

TLE

AggiornatoSource: CelesTrak SupGP

Epoca: Sep 14, 2026, 22:57 UTC

1 68700C 26081B   26257.95673611  .00019278  00000+0  56943-3 0  2571
2 68700  53.1575 231.9520 0001457 101.4805 234.1777 15.34389465    17

Traccia STARLINK-37334 in tempo reale con AllMySat

Download on the App Store